Location: Rostock
(54.0884°N, 12.1234°E)
Time: 14:55:13
(UTC+02:00)

ISS - Pass Details

Date: 06 January 2018
Orbit: 402 x 408 km, 51.6° (Epoch: 20 July)

Event Time Altitude Azimuth Distance (km) Brightness Sun altitude
Exits shadow 05:27:06 31° 111° (ESE) 765 -1.9 -25.3°
Drops below altitude 10° 05:29:06 10° 95° (E) 1,502 0.1 -25.0°
Enters shadow 06:24:07 -71° 277° (W) 12,457 3.7 -17.1°
Maximum altitude 07:02:16 48° 191° (SSW) 554 -3.1 -11.8°
